Hermiston, OR

12:18 AM PDT on August 29, 2016 (GMT -0700)
Hermiston Municipal

Weather History for KHRI - October, 2012

Change the Weather History Date:

Saturday, October 20, 2012

  Actual Average Record
Temperature  
Mean Temperature 50 °F -  
Max Temperature 57 °F 64 °F 82 °F (1940)
Min Temperature 43 °F 34 °F 17 °F (1949)
Degree Days  
Heating Degree Days 14    
Moisture  
Dew Point 36 °F    
Average Humidity 58    
Maximum Humidity 75    
Minimum Humidity 37    
Precipitation  
Precipitation 0.00 in - - ()
Sea Level Pressure  
Sea Level Pressure 29.86 in    
Wind  
Wind Speed 14 mph (SW)    
Max Wind Speed 18 mph    
Max Gust Speed 33 mph    
Visibility 10 miles    
Events      
Averages and records for this station are not official NWS values.
T = Trace of Precipitation, MM = Missing Value Source: NWS Daily Summary

Daily Weather History Graph

Daily Weather History Graph

Search for Another Location

Airport or City:

Trip Planner

Search our weather history database for the weather conditions in past years. The results will help you decide how hot, cold, wet, or windy it might be!

Date:

Astronomy

Oct. 20, 2012 Rise Set
Actual Time 7:21 AM PDT 6:01 PM PDT
Civil Twilight 6:50 AM PDT 6:31 PM PDT
Nautical Twilight 6:16 AM PDT 7:06 PM PDT
Astronomical Twilight 5:41 AM PDT 7:40 PM PDT
Moon 1:10 PM PDT (10/20) 10:44 PM PDT (10/20)
Length of Visible Light 11h 40m
Length of Day
10h 40m
Waxing Crescent, 35% of the Moon is Illuminated
Oct 20
Waxing Crescent
Oct 21
First Quarter
Oct 29
Full
Nov 6
Last Quarter
Nov 13
New

Hourly Weather History & Observations

Time (PDT) Temp. Windchill Dew Point Humidity Pressure Visibility Wind Dir Wind Speed Gust Speed Precip Events Conditions
12:53 AM 55.0 °F - 46.9 °F 74% 29.76 in 10.0 mi WSW 13.8 mph - N/A   Mostly Cloudy
1:53 AM 54.0 °F - 46.0 °F 75% 29.75 in 10.0 mi SW 12.7 mph - N/A   Mostly Cloudy
3:53 AM 53.1 °F - 43.0 °F 69% 29.78 in 10.0 mi SW 15.0 mph - N/A   Overcast
4:53 AM 52.0 °F - 42.1 °F 69% 29.80 in 10.0 mi SW 16.1 mph 24.2 mph 0.00 in   Overcast
5:53 AM 51.1 °F - 41.0 °F 68% 29.82 in 10.0 mi SW 12.7 mph 19.6 mph N/A   Overcast
6:53 AM 50.0 °F - 37.9 °F 63% 29.83 in 10.0 mi SW 17.3 mph 24.2 mph N/A   Overcast
7:53 AM 48.9 °F - 37.0 °F 64% 29.85 in 10.0 mi WSW 13.8 mph 20.7 mph N/A   Scattered Clouds
8:53 AM 50.0 °F - 36.0 °F 59% 29.87 in 10.0 mi WSW 15.0 mph 21.9 mph N/A   Clear
9:53 AM 53.1 °F - 35.1 °F 50% 29.89 in 10.0 mi WSW 15.0 mph 23.0 mph N/A   Partly Cloudy
10:53 AM 54.0 °F - 35.1 °F 49% 29.88 in 10.0 mi WSW 18.4 mph 29.9 mph N/A   Clear
11:53 AM 55.9 °F - 34.0 °F 44% 29.90 in 10.0 mi WSW 18.4 mph 33.4 mph N/A   Clear
12:53 PM 55.9 °F - 34.0 °F 44% 29.89 in 10.0 mi WSW 16.1 mph 25.3 mph N/A   Overcast
1:53 PM 57.0 °F - 35.1 °F 44% 29.89 in 10.0 mi WSW 15.0 mph 21.9 mph N/A   Partly Cloudy
2:53 PM 57.9 °F - 32.0 °F 37% 29.88 in 10.0 mi WSW 16.1 mph 23.0 mph N/A   Clear
3:53 PM 57.0 °F - 32.0 °F 39% 29.87 in 10.0 mi West 15.0 mph - N/A   Clear
4:53 PM 55.0 °F - 32.0 °F 42% 29.87 in 10.0 mi WSW 13.8 mph - N/A   Scattered Clouds
5:53 PM 52.0 °F - 32.0 °F 47% 29.87 in 10.0 mi WSW 11.5 mph - N/A   Partly Cloudy
6:53 PM 48.0 °F - 33.1 °F 56% 29.88 in 10.0 mi West 8.1 mph - N/A   Clear
7:53 PM 46.9 °F - 34.0 °F 61% 29.89 in 10.0 mi SW 5.8 mph - N/A   Overcast
8:53 PM 44.1 °F 40.1 °F 35.1 °F 71% 29.90 in 10.0 mi South 6.9 mph - N/A   Overcast
9:53 PM 44.1 °F 40.1 °F 35.1 °F 71% 29.91 in 10.0 mi SW 6.9 mph - N/A   Overcast
10:53 PM 45.0 °F 42.6 °F 35.1 °F 68% 29.92 in 10.0 mi South 4.6 mph - N/A   Overcast
11:53 PM 43.0 °F 37.7 °F 35.1 °F 74% 29.91 in 10.0 mi SW 9.2 mph - N/A   Scattered Clouds